| time (UTC) | temp F | wind direction | speed knots | gust knots | rain 1hr in | rain 24hr in | rain mn in | humidity % | barometer mb |
| 20260506164504 | 48 | 13 | 2.6 | 6.1 | 0.00 | 0.00 | 0.00 | 57 | 1012.8 |
| 20260506163004 | 49 | 284 | 3.5 | 7.0 | 0.00 | 0.00 | 0.00 | 58 | 1012.8 |
| 20260506161508 | 48 | 5 | 1.7 | 7.8 | 0.00 | 0.00 | 0.00 | 57 | 1012.9 |
| 20260506160016 | 48 | 360 | 1.7 | 6.1 | 0.00 | 0.00 | 0.00 | 56 | 1012.9 |
| 20260506154519 | 48 | 49 | 0.9 | 6.1 | 0.00 | 0.00 | 0.00 | 61 | 1012.6 |
| 20260506153003 | 48 | 231 | 0.9 | 4.3 | 0.00 | 0.01 | 0.00 | 57 | 1012.4 |
| 20260506151507 | 48 | 36 | 2.6 | 7.0 | 0.00 | 0.01 | 0.00 | 59 | 1012.4 |
| 20260506150010 | 48 | 311 | 1.7 | 5.2 | 0.00 | 0.01 | 0.00 | 62 | 1012.4 |
| 20260506144515 | 47 | 26 | 2.6 | 4.3 | 0.00 | 0.01 | 0.00 | 62 | 1012.3 |
| 20260506143026 | 46 | 44 | 0.9 | 3.5 | 0.00 | 0.01 | 0.00 | 63 | 1011.9 |
| 20260506141504 | 46 | 339 | 1.7 | 3.5 | 0.00 | 0.01 | 0.00 | 65 | 1011.8 |
| 20260506140006 | 45 | 25 | 0.9 | 3.5 | 0.00 | 0.01 | 0.00 | 68 | 1011.7 |
| 20260506134513 | 45 | 333 | 0.9 | 5.2 | 0.00 | 0.01 | 0.00 | 69 | 1011.7 |
| 20260506133016 | 44 | 336 | 0.9 | 5.2 | 0.00 | 0.01 | 0.00 | 70 | 1011.6 |
| 20260506131521 | 44 | 30 | 2.6 | 6.1 | 0.00 | 0.01 | 0.00 | 71 | 1011.5 |
| 20260506130010 | 44 | 13 | 1.7 | 6.1 | 0.00 | 0.01 | 0.00 | 71 | 1011.3 |
| 20260506124510 | 43 | 309 | 1.7 | 6.1 | 0.00 | 0.01 | 0.00 | 72 | 1011.0 |
| 20260506123019 | 44 | 29 | 2.6 | 7.0 | 0.00 | 0.01 | 0.00 | 76 | 1010.8 |
| 20260506121518 | 44 | 11 | 0.9 | 2.6 | 0.00 | 0.01 | 0.00 | 81 | 1010.4 |
| 20260506120035 | 42 | 330 | 0.0 | 1.7 | 0.00 | 0.01 | 0.00 | 84 | 1010.3 |
| 20260506114510 | 40 | 5 | 0.0 | 2.6 | 0.00 | 0.01 | 0.00 | 88 | 1010.3 |
| 20260506113011 | 38 | 276 | 0.0 | 0.0 | 0.00 | 0.01 | 0.00 | 88 | 1009.8 |
| 20260506111515 | 37 | 276 | 0.0 | 0.0 | 0.00 | 0.01 | 0.00 | 86 | 1009.9 |
| 20260506110026 | 37 | 276 | 0.0 | 0.0 | 0.00 | 0.01 | 0.00 | 85 | 1009.5 |
| 20260506104526 | 38 | 276 | 0.0 | 0.0 | 0.00 | 0.01 | 0.00 | 82 | 1009.4 |
| 20260506103023 | 39 | 276 | 0.0 | 0.0 | 0.00 | 0.01 | 0.00 | 81 | 1009.1 |
| 20260506101515 | 41 | 276 | 0.0 | 0.0 | 0.00 | 0.01 | 0.00 | 78 | 1009.2 |
| 20260506100022 | 42 | 276 | 0.0 | 1.7 | 0.00 | 0.01 | 0.00 | 75 | 1009.3 |
| 20260506094532 | 43 | 307 | 0.0 | 2.6 | 0.00 | 0.01 | 0.00 | 72 | 1008.7 |
| 20260506093040 | 43 | 360 | 0.0 | 2.6 | 0.00 | 0.01 | 0.00 | 71 | 1008.4 |
| 20260506091512 | 43 | 291 | 0.0 | 1.7 | 0.00 | 0.01 | 0.00 | 71 | 1008.7 |
| 20260506090017 | 42 | 312 | 0.0 | 1.7 | 0.00 | 0.01 | 0.00 | 72 | 1008.5 |
| 20260506084520 | 42 | 312 | 0.0 | 1.7 | 0.00 | 0.01 | 0.00 | 74 | 1008.3 |
| 20260506083023 | 42 | 312 | 0.0 | 0.9 | 0.00 | 0.01 | 0.00 | 70 | 1008.2 |
| 20260506081508 | 42 | 309 | 0.0 | 0.0 | 0.00 | 0.01 | 0.00 | 71 | 1008.5 |
| 20260506073004 | 44 | 309 | 0.0 | 0.0 | 0.00 | 0.01 | 0.00 | 66 | 1008.4 |
| 20260506071507 | 45 | 337 | 0.0 | 1.7 | 0.00 | 0.01 | 0.00 | 63 | 1008.3 |
| 20260506061504 | 46 | 299 | 0.9 | 2.6 | 0.00 | 0.01 | 0.00 | 60 | 1008.6 |
| 20260506044518 | 46 | 300 | 0.0 | 1.7 | 0.00 | 0.02 | 0.00 | 59 | 1008.3 |
| 20260506043018 | 46 | 288 | 0.0 | 1.7 | 0.00 | 0.02 | 0.00 | 60 | 1008.1 |
| 20260506041524 | 47 | 268 | 0.9 | 1.7 | 0.00 | 0.02 | 0.00 | 58 | 1008.1 |
| 20260506040024 | 47 | 282 | 0.0 | 1.7 | 0.00 | 0.02 | 0.00 | 59 | 1008.2 |
| 20260506034510 | 47 | 244 | 0.0 | 1.7 | 0.00 | 0.02 | 0.02 | 59 | 1008.3 |
| 20260506033013 | 47 | 263 | 0.0 | 1.7 | 0.00 | 0.02 | 0.02 | 60 | 1008.1 |
| 20260506031521 | 46 | 248 | 0.0 | 1.7 | 0.00 | 0.02 | 0.02 | 63 | 1008.2 |
| 20260506030022 | 46 | 248 | 0.0 | 1.7 | 0.00 | 0.02 | 0.02 | 61 | 1008.3 |
| 20260506024532 | 47 | 234 | 0.0 | 1.7 | 0.00 | 0.02 | 0.02 | 61 | 1008.2 |
| 20260506023011 | 47 | 236 | 0.0 | 1.7 | 0.00 | 0.02 | 0.02 | 63 | 1008.3 |
| 20260506021518 | 47 | 230 | 0.0 | 0.9 | 0.00 | 0.02 | 0.02 | 62 | 1008.1 |
| 20260506020022 | 47 | 223 | 0.0 | 1.7 | 0.00 | 0.02 | 0.02 | 59 | 1008.2 |
| 20260506014526 | 48 | 241 | 0.0 | 1.7 | 0.00 | 0.02 | 0.02 | 60 | 1007.9 |
| 20260506013027 | 48 | 286 | 0.0 | 1.7 | 0.00 | 0.02 | 0.02 | 54 | 1007.7 |
| 20260506011517 | 49 | 228 | 0.0 | 1.7 | 0.00 | 0.02 | 0.02 | 59 | 1007.8 |
| 20260506010019 | 49 | 259 | 0.0 | 1.7 | 0.00 | 0.02 | 0.02 | 51 | 1007.6 |
| 20260506004524 | 50 | 246 | 0.0 | 4.3 | 0.00 | 0.02 | 0.02 | 50 | 1007.7 |
| 20260506003026 | 50 | 263 | 1.7 | 4.3 | 0.00 | 0.02 | 0.02 | 49 | 1007.7 |
| 20260506001526 | 50 | 273 | 1.7 | 7.0 | 0.00 | 0.02 | 0.02 | 49 | 1007.6 |
| 20260506000015 | 50 | 326 | 1.7 | 3.5 | 0.00 | 0.02 | 0.02 | 48 | 1007.5 |
| 20260505234546 | 51 | 208 | 1.7 | 3.5 | 0.00 | 0.02 | 0.02 | 49 | 1007.2 |
| 20260505233026 | 51 | 249 | 0.9 | 4.3 | 0.00 | 0.02 | 0.02 | 46 | 1007.1 |
| 20260505231531 | 52 | 219 | 0.0 | 7.0 | 0.00 | 0.02 | 0.02 | 48 | 1007.1 |
| 20260505230005 | 52 | 253 | 0.9 | 3.5 | 0.00 | 0.02 | 0.02 | 47 | 1007.0 |
| 20260505224504 | 52 | 244 | 2.6 | 7.0 | 0.00 | 0.02 | 0.02 | 45 | 1007.1 |
| 20260505223009 | 52 | 263 | 2.6 | 7.0 | 0.00 | 0.02 | 0.02 | 47 | 1007.2 |
| 20260505221505 | 53 | 269 | 3.5 | 7.0 | 0.00 | 0.02 | 0.02 | 52 | 1007.1 |
| 20260505220008 | 53 | 244 | 3.5 | 7.0 | 0.00 | 0.02 | 0.02 | 52 | 1007.1 |
| 20260505214504 | 53 | 256 | 2.6 | 8.7 | 0.00 | 0.02 | 0.02 | 54 | 1007.1 |
| 20260505213007 | 53 | 298 | 3.5 | 8.7 | 0.00 | 0.02 | 0.02 | 53 | 1007.1 |
| 20260505211505 | 53 | 347 | 3.5 | 7.8 | 0.00 | 0.02 | 0.02 | 58 | 1007.1 |
| 20260505210008 | 53 | 208 | 3.5 | 8.7 | 0.00 | 0.02 | 0.02 | 60 | 1007.2 |
| 20260505204508 | 53 | 287 | 2.6 | 7.0 | 0.00 | 0.02 | 0.02 | 64 | 1007.2 |
| 20260505203008 | 53 | 250 | 2.6 | 7.0 | 0.00 | 0.02 | 0.02 | 62 | 1007.1 |
| 20260505201505 | 53 | 333 | 1.7 | 7.0 | 0.00 | 0.02 | 0.02 | 59 | 1007.2 |
| 20260505200012 | 53 | 242 | 1.7 | 8.7 | 0.00 | 0.02 | 0.02 | 61 | 1007.1 |
| 20260505194510 | 53 | 254 | 2.6 | 7.0 | 0.00 | 0.02 | 0.02 | 66 | 1007.1 |
| 20260505193009 | 53 | 261 | 3.5 | 8.7 | 0.00 | 0.02 | 0.02 | 66 | 1007.3 |
| 20260505191510 | 53 | 250 | 2.6 | 9.6 | 0.00 | 0.02 | 0.02 | 64 | 1007.3 |
| 20260505190005 | 54 | 232 | 5.2 | 9.6 | 0.00 | 0.02 | 0.02 | 64 | 1007.2 |
| 20260505184517 | 54 | 238 | 1.7 | 7.0 | 0.00 | 0.02 | 0.02 | 63 | 1007.2 |
| 20260505183029 | 54 | 249 | 3.5 | 12.2 | 0.00 | 0.02 | 0.02 | 62 | 1007.1 |
| 20260505181512 | 55 | 244 | 4.3 | 8.7 | 0.00 | 0.02 | 0.02 | 63 | 1006.8 |
| 20260505180011 | 54 | 265 | 2.6 | 7.8 | 0.00 | 0.02 | 0.02 | 60 | 1006.7 |
| 20260505174511 | 54 | 244 | 2.6 | 8.7 | 0.00 | 0.02 | 0.02 | 63 | 1006.5 |
| 20260505173020 | 53 | 254 | 2.6 | 8.7 | 0.00 | 0.02 | 0.02 | 67 | 1006.4 |
| 20260505171514 | 53 | 322 | 1.7 | 7.8 | 0.00 | 0.02 | 0.02 | 68 | 1006.6 |
| 20260505170014 | 53 | 173 | 2.6 | 8.7 | 0.00 | 0.02 | 0.02 | 72 | 1006.3 |